User: anonymous   Login
Location: ???????
(55.4362°N, 38.1183°E)
Time: 15:45:39
(UTC+00:00)
Language:

NOAA 19 - Orbit

View from above orbital plane
View from above orbital plane
View from above satellite
View from above satellite

Ground track
Ground track

The orbit data is extracted from the following two-line orbital elements,

1 33591U 09005A   21332.18173824  .00000052  00000-0  53503-4 0  9997
2 33591  99.1717 356.8572 0014413  36.4771 323.7379 14.12511013660032
Epoch (UTC): 28 November 2021 04:21:42
Eccentricity: 0.0014413
inclination: 99.1717°
perigee height: 840 km
apogee height: 861 km
right ascension of ascending node: 356.8572°
argument of perigee: 36.4771°
revolutions per day: 14.12511013
mean anomaly at epoch: 323.7379°
orbit number at epoch: 66003

The dashed part of the orbit path shows where the satellite is in the earth's shadow,  

DLR